• In Czech Republic
  • List of Countries
  • For 7 days
  • Water Temperature
  • Satellite Maps
  • Weather Map
  • Weather Widgets
  • user-avatar
    Login

    Hourly Weather Roeselare

    Today, 23 February, Friday

    Time Temperature Precipitation Wind Pressure Humidity
    00:00 -4°C° 0 mm 5 mps 765 mmHg 67%
    01:00 -4°C° 0 mm 5 mps 765 mmHg 67%
    02:00 -4°C° 0 mm 5 mps 764 mmHg 67%
    03:00 -4°C° 0 mm 5 mps 764 mmHg 67%
    04:00 -4°C° 0 mm 5 mps 764 mmHg 68%
    05:00 -4°C° 0 mm 5 mps 764 mmHg 69%
    06:00 -4°C° 0 mm 5 mps 764 mmHg 69%
    07:00 -4°C° 0 mm 6 mps 764 mmHg 66%
    08:00 -3°C° 0 mm 6 mps 764 mmHg 62%
    09:00 -2°C° 0 mm 7 mps 764 mmHg 59%
    10:00 -1°C° 0 mm 7 mps 764 mmHg 56%
    11:00 0°C° 0 mm 7 mps 763 mmHg 52%
    12:00 +2°C° 0 mm 7 mps 763 mmHg 49%
    13:00 +2°C° 0 mm 7 mps 763 mmHg 48%
    14:00 +2°C° 0 mm 7 mps 763 mmHg 46%
    15:00 +2°C° 0 mm 7 mps 762 mmHg 45%
    16:00 0°C° 0 mm 7 mps 762 mmHg 46%
    17:00 -2°C° 0 mm 7 mps 762 mmHg 47%
    18:00 -3°C° 0 mm 6 mps 762 mmHg 48%
    19:00 -3°C° 0 mm 6 mps 763 mmHg 47%
    20:00 -4°C° 0 mm 6 mps 763 mmHg 46%
    21:00 -4°C° 0 mm 6 mps 763 mmHg 45%
    22:00 -4°C° 0 mm 6 mps 763 mmHg 44%
    23:00 -5°C° 0 mm 6 mps 763 mmHg 43%

    Tomorrow, 24 February, Saturday

    Time Temperature Precipitation Wind Pressure Humidity
    00:00 -5°C° 0 mm 6 mps 763 mmHg 42%
    01:00 -5°C° 0 mm 6 mps 763 mmHg 42%
    02:00 -5°C° 0 mm 6 mps 763 mmHg 41%
    03:00 -5°C° 0 mm 6 mps 763 mmHg 40%
    04:00 -5°C° 0 mm 6 mps 763 mmHg 39%
    05:00 -6°C° 0 mm 7 mps 763 mmHg 38%
    06:00 -6°C° 0 mm 7 mps 763 mmHg 38%
    07:00 -4°C° 0 mm 7 mps 763 mmHg 34%
    08:00 -4°C° 0 mm 8 mps 763 mmHg 31%
    09:00 -4°C° 0 mm 8 mps 764 mmHg 28%
    10:00 -1°C° 0 mm 8 mps 764 mmHg 28%
    11:00 0°C° 0 mm 8 mps 764 mmHg 28%
    12:00 +1°C° 0 mm 8 mps 763 mmHg 27%
    13:00 +2°C° 0 mm 8 mps 763 mmHg 30%
    14:00 +2°C° 0 mm 8 mps 763 mmHg 33%
    15:00 +2°C° 0 mm 8 mps 763 mmHg 36%
    16:00 +1°C° 0 mm 8 mps 764 mmHg 41%
    17:00 0°C° 0 mm 8 mps 764 mmHg 46%
    18:00 -1°C° 0 mm 8 mps 764 mmHg 51%
    19:00 -2°C° 0 mm 8 mps 765 mmHg 50%
    20:00 -4°C° 0 mm 8 mps 765 mmHg 49%
    21:00 -4°C° 0 mm 8 mps 765 mmHg 48%
    22:00 -5°C° 0 mm 8 mps 766 mmHg 48%
    23:00 -4°C° 0 mm 7 mps 766 mmHg 47%

    Day after tomorrow, 25 February, Sunday

    Time Temperature Precipitation Wind Pressure Humidity
    00:00 -4°C° 0 mm 7 mps 766 mmHg 47%
    01:00 -6°C° 0 mm 7 mps 766 mmHg 48%
    02:00 -6°C° 0 mm 7 mps 766 mmHg 49%
    03:00 -6°C° 0 mm 7 mps 766 mmHg 50%
    04:00 -6°C° 0 mm 7 mps 766 mmHg 48%
    05:00 -6°C° 0 mm 7 mps 767 mmHg 46%
    06:00 -6°C° 0 mm 7 mps 767 mmHg 44%
    07:00 -6°C° 0 mm 8 mps 767 mmHg 40%
    08:00 -5°C° 0 mm 8 mps 767 mmHg 36%
    09:00 -5°C° 0 mm 8 mps 767 mmHg 32%
    10:00 -4°C° 0 mm 8 mps 768 mmHg 30%
    11:00 -2°C° 0 mm 8 mps 768 mmHg 27%
    12:00 -1°C° 0 mm 8 mps 768 mmHg 24%
    13:00 -1°C° 0 mm 8 mps 768 mmHg 25%
    14:00 -1°C° 0 mm 8 mps 768 mmHg 25%
    15:00 0°C° 0 mm 8 mps 767 mmHg 26%
    16:00 -2°C° 0 mm 7 mps 768 mmHg 29%
    17:00 -3°C° 0 mm 7 mps 768 mmHg 31%
    18:00 -4°C° 0 mm 6 mps 768 mmHg 34%
    19:00 -4°C° 0 mm 6 mps 768 mmHg 36%
    20:00 -6°C° 0 mm 7 mps 769 mmHg 38%
    21:00 -6°C° 0 mm 7 mps 769 mmHg 40%
    22:00 -5°C° 0 mm 6 mps 769 mmHg 41%
    23:00 -5°C° 0 mm 6 mps 769 mmHg 42%

    26 February, Monday

    Time Temperature Precipitation Wind Pressure Humidity
    00:00 -6°C° 0 mm 6 mps 769 mmHg 44%
    01:00 -6°C° 0 mm 6 mps 769 mmHg 45%
    02:00 -6°C° 0 mm 5 mps 769 mmHg 46%
    03:00 -6°C° 0 mm 5 mps 769 mmHg 47%
    04:00 -6°C° 0 mm 5 mps 769 mmHg 49%
    05:00 -6°C° 0 mm 5 mps 769 mmHg 51%
    06:00 -6°C° 0 mm 5 mps 769 mmHg 54%
    07:00 -6°C° 0 mm 6 mps 769 mmHg 53%
    08:00 -5°C° 0 mm 6 mps 769 mmHg 52%
    09:00 -6°C° 0 mm 7 mps 769 mmHg 52%
    10:00 -4°C° 0 mm 7 mps 769 mmHg 47%
    11:00 -3°C° 0 mm 7 mps 769 mmHg 43%
    12:00 -3°C° 0 mm 7 mps 768 mmHg 39%
    13:00 -3°C° 0 mm 7 mps 768 mmHg 38%
    14:00 -3°C° 0 mm 7 mps 767 mmHg 38%
    15:00 -3°C° 0 mm 7 mps 767 mmHg 37%
    16:00 -4°C° 0 mm 6 mps 767 mmHg 40%
    17:00 -4°C° 0 mm 6 mps 767 mmHg 43%
    18:00 -5°C° 0 mm 5 mps 767 mmHg 45%
    19:00 -6°C° 0 mm 5 mps 767 mmHg 46%
    20:00 -6°C° 0 mm 5 mps 767 mmHg 46%
    21:00 -6°C° 0 mm 5 mps 767 mmHg 46%
    22:00 -6°C° 0 mm 5 mps 767 mmHg 48%
    23:00 -6°C° 0 mm 5 mps 767 mmHg 49%

    27 February, Tuesday

    Time Temperature Precipitation Wind Pressure Humidity
    00:00 -6°C° 0 mm 5 mps 766 mmHg 51%
    01:00 -7°C° 0 mm 5 mps 766 mmHg 53%
    02:00 -7°C° 0 mm 5 mps 766 mmHg 56%
    03:00 -7°C° 0 mm 5 mps 766 mmHg 59%
    04:00 -7°C° 0 mm 4 mps 765 mmHg 59%
    05:00 -7°C° 0 mm 4 mps 765 mmHg 59%
    06:00 -7°C° 0 mm 4 mps 765 mmHg 59%
    07:00 -7°C° 0 mm 4 mps 765 mmHg 52%
    08:00 -5°C° 0 mm 4 mps 765 mmHg 46%
    09:00 -5°C° 0 mm 4 mps 765 mmHg 40%
    10:00 -4°C° 0 mm 4 mps 765 mmHg 38%
    11:00 -3°C° 0 mm 4 mps 764 mmHg 35%
    12:00 -2°C° 0 mm 5 mps 764 mmHg 33%
    13:00 -2°C° 0 mm 5 mps 764 mmHg 33%
    14:00 -2°C° 0 mm 5 mps 763 mmHg 33%
    15:00 -2°C° 0 mm 5 mps 763 mmHg 33%
    16:00 -3°C° 0 mm 4 mps 763 mmHg 35%
    17:00 -4°C° 0 mm 4 mps 763 mmHg 38%
    18:00 -5°C° 0 mm 3 mps 763 mmHg 40%
    19:00 -5°C° 0 mm 3 mps 763 mmHg 40%
    20:00 -6°C° 0 mm 3 mps 764 mmHg 39%
    21:00 -6°C° 0 mm 3 mps 764 mmHg 39%
    22:00 -5°C° 0 mm 2 mps 764 mmHg 38%
    23:00 -5°C° 0 mm 2 mps 764 mmHg 38%

    28 February, Wednesday

    Time Temperature Precipitation Wind Pressure Humidity
    00:00 -5°C° 0 mm 2 mps 764 mmHg 38%
    01:00 -5°C° 0 mm 2 mps 763 mmHg 38%
    02:00 -6°C° 0 mm 2 mps 763 mmHg 38%
    03:00 -6°C° 0 mm 2 mps 763 mmHg 38%
    04:00 -6°C° 0 mm 2 mps 763 mmHg 37%
    05:00 -6°C° 0 mm 2 mps 763 mmHg 37%
    06:00 -6°C° 0 mm 2 mps 763 mmHg 37%
    07:00 -5°C° 0 mm 2 mps 763 mmHg 34%
    08:00 -5°C° 0 mm 2 mps 763 mmHg 31%
    09:00 -5°C° 0 mm 3 mps 763 mmHg 28%
    10:00 -4°C° 0 mm 3 mps 763 mmHg 28%
    11:00 -3°C° 0 mm 4 mps 763 mmHg 27%
    12:00 -3°C° 0 mm 4 mps 762 mmHg 27%
    13:00 -4°C° 0 mm 5 mps 762 mmHg 26%
    14:00 -4°C° 0 mm 5 mps 762 mmHg 25%
    15:00 -4°C° 0 mm 5 mps 761 mmHg 24%
    16:00 -5°C° 0 mm 5 mps 761 mmHg 25%
    17:00 -6°C° 0 mm 5 mps 761 mmHg 26%
    18:00 -7°C° 0 mm 5 mps 761 mmHg 26%
    19:00 -8°C° 0 mm 6 mps 761 mmHg 27%
    20:00 -8°C° 0 mm 6 mps 761 mmHg 28%
    21:00 -9°C° 0 mm 6 mps 761 mmHg 29%
    22:00 -9°C° 0 mm 6 mps 761 mmHg 30%
    23:00 -9°C° 0 mm 7 mps 761 mmHg 31%
    Show more